Location: Borger
(52.9222°N, 6.7926°E)
Time: 07:47:16
(UTC+00:00)

Meteor 2-9 Rocket - Pass Details

Date: 15 May 2026
Orbit: 790 x 893 km, 81.3° (Epoch: 6 June)

Event Time Altitude Azimuth Distance (km) Brightness Sun altitude
Rises 22:30:46 0° 346° (NNW) 3,319 9.1 -16.9°
Reaches altitude 10° 22:33:08 10° 346° (NNW) 2,393 7.9 -17.0°
Maximum altitude 22:38:32 86° 260° (W) 826 4.1 -17.2°
Enters shadow 22:41:25 29° 171° (S) 1,460 4.8 -17.3°
